Theta_e
346 348 345 345 340 334 340 339 331 332 336 330 328 335 341 338 324 325 354 359 334 335 346 344 352 357 348 343 340 338 340 340 338 339 340 340 339 340 342 342 342 343 346 342 333 331 334 334 335 336 336 337 337 335 333 330 327 326 326 327 326 326 326 325 324 326 326 325 324 326 326 326 326 327 328 330 331 331 331 330 329 328 328 327 327 328 327
335 341 342 343 339 333 333 335 336 336 336 333 331 340 347 337 329 334 344 345 342 342 341 339 345 347 343 342 342 341 341 341 339 339 341 340 339 341 341 341 340 342 343 338 331 332 334 333 335 336 335 336 336 334 332 329 326 324 324 326 325 325 326 325 324 325 327 326 325 326 326 325 325 326 327 328 330 332 332 330 329 328 328 328 327 327 328
325 337 342 339 337 334 329 332 343 341 334 334 332 336 340 335 334 341 338 335 341 342 338 343 345 344 343 343 342 341 339 339 340 339 339 339 340 341 340 339 339 340 339 334 330 332 333 333 336 335 334 334 334 332 332 329 326 324 324 325 325 325 326 325 324 326 326 326 325 325 325 325 325 326 327 328 330 330 330 328 327 327 327 327 328 327 328
322 331 335 336 341 336 326 329 342 343 335 335 334 334 340 338 336 339 332 329 341 348 345 344 344 342 343 342 341 340 338 338 339 339 339 340 340 340 339 338 339 340 339 336 331 330 332 334 336 334 332 333 333 332 331 329 327 325 324 325 325 325 326 324 324 325 325 326 325 325 325 325 326 327 328 329 329 329 328 326 324 325 326 327 328 327 328
326 334 335 339 338 327 325 334 343 343 339 338 334 335 343 345 337 333 330 333 346 353 345 345 348 344 342 342 340 338 338 338 338 337 338 339 340 340 339 339 340 340 337 333 330 330 332 334 334 331 331 332 331 330 328 328 328 326 325 325 325 325 326 325 325 325 326 326 325 325 325 324 325 327 329 328 328 326 325 324 324 325 326 327 328 328 328
328 338 338 334 327 322 331 350 356 345 337 339 337 335 342 346 340 338 340 342 353 355 348 350 351 346 341 338 336 335 336 337 338 338 338 339 340 338 337 339 339 335 332 330 330 331 332 332 331 330 331 331 330 329 328 328 328 327 326 326 325 325 326 325 326 326 326 327 326 324 323 322 324 328 328 328 326 325 325 325 324 326 327 328 328 327 327
331 333 332 326 325 334 348 358 355 343 334 336 340 340 348 348 341 343 344 342 349 354 348 343 341 338 338 337 336 336 336 336 336 337 338 339 338 337 338 341 338 331 329 329 329 330 331 331 330 330 330 330 330 329 328 328 328 328 327 327 326 326 326 326 326 327 327 327 326 323 322 322 324 326 327 327 327 326 326 325 325 326 326 327 328 328 327
333 328 328 328 334 346 351 347 345 339 333 333 332 334 350 358 349 345 345 342 345 343 339 339 339 337 338 339 337 336 337 337 335 336 337 337 335 336 337 337 334 329 329 329 329 330 330 329 330 331 330 330 330 330 329 329 329 329 328 328 328 327 327 327 326 327 327 326 324 324 323 322 324 325 325 326 326 325 325 325 326 326 325 325 327 327 327
336 335 331 332 334 336 339 339 341 339 336 340 336 331 347 369 360 349 350 354 350 342 339 341 341 340 344 345 341 337 338 339 336 334 334 332 331 333 331 330 330 329 329 330 329 329 329 329 330 331 329 330 330 330 329 329 329 330 329 329 329 328 328 328 327 327 327 325 324 324 323 322 324 325 324 324 324 323 324 325 326 325 324 323 324 323 325
341 338 331 330 328 329 340 348 346 340 336 345 348 335 341 367 363 346 348 357 354 346 342 340 341 345 352 356 352 343 337 337 336 335 332 327 326 328 327 326 328 328 328 329 329 328 329 329 330 330 330 331 331 330 330 330 329 330 330 330 330 329 329 328 328 328 328 327 326 325 322 321 323 323 323 323 322 322 324 326 327 326 325 324 322 322 322
335 330 326 330 328 329 344 356 350 339 334 343 350 334 335 362 364 344 344 351 350 345 342 340 344 348 353 361 360 347 338 336 335 335 333 328 324 326 327 326 327 328 329 329 329 329 330 330 330 330 330 330 330 331 330 330 330 330 330 330 330 330 330 329 329 329 329 328 326 323 321 321 321 322 322 322 321 321 322 325 325 325 325 324 322 322 321
333 329 328 331 329 328 344 355 349 338 333 338 336 326 335 364 363 344 344 349 346 342 339 338 343 348 357 364 357 344 339 336 333 332 333 330 326 325 327 327 328 328 329 329 329 329 329 330 330 330 330 330 331 331 330 330 331 331 330 330 330 330 331 330 329 329 329 328 326 322 321 321 320 321 322 321 320 321 321 322 322 322 324 325 323 322 322
333 331 327 327 330 336 347 351 344 335 330 329 326 327 343 364 360 345 344 345 340 337 339 341 342 346 354 355 348 341 338 337 334 330 327 326 326 326 327 328 328 329 328 328 329 329 330 330 330 329 330 331 330 330 331 331 331 330 329 329 329 329 329 329 328 328 328 328 325 322 320 321 321 321 320 320 320 321 321 321 321 321 323 324 324 323 323
332 336 331 325 331 341 344 341 338 332 325 327 333 338 344 354 355 346 340 339 337 334 337 340 340 343 345 345 346 346 343 342 342 335 327 326 327 326 327 329 328 328 329 329 329 329 329 329 330 330 330 330 331 330 331 330 329 328 328 327 327 327 327 328 327 327 328 328 324 321 321 321 320 320 320 320 320 321 321 321 321 321 322 323 323 323 323
330 331 329 325 331 338 334 330 332 331 329 339 351 348 341 345 353 346 338 337 336 334 336 337 340 346 348 344 345 346 342 342 343 337 330 328 328 326 327 328 329 329 329 328 328 329 330 329 329 330 330 330 330 330 330 329 328 327 326 325 325 327 328 328 328 328 329 328 323 321 321 320 319 319 320 320 321 321 321 321 321 321 321 321 322 322 323
328 327 331 334 338 340 333 330 335 339 340 349 356 351 345 343 342 340 339 337 333 334 339 338 339 347 349 343 343 345 343 342 341 337 332 328 326 327 327 327 329 331 330 329 329 329 330 330 330 330 330 330 329 329 329 328 327 326 325 324 326 327 327 327 328 330 330 325 321 321 322 320 319 320 320 320 321 321 321 321 321 321 321 321 321 321 322
336 337 340 340 340 337 332 333 341 345 341 339 339 343 346 343 337 338 341 339 334 334 336 336 339 345 345 344 345 346 346 344 340 336 332 327 326 328 327 327 329 330 330 330 328 328 329 330 329 329 328 328 328 328 327 327 326 325 324 326 327 328 326 324 326 329 328 323 321 322 320 319 319 320 320 321 321 321 321 321 321 321 321 321 321 321 322
339 334 335 337 339 340 338 335 337 338 337 335 333 334 337 338 336 337 338 338 336 334 335 339 342 343 344 344 344 344 344 344 341 335 330 327 326 327 328 327 327 329 330 330 327 328 328 328 328 328 327 326 327 327 326 326 325 324 325 327 328 328 325 323 325 328 326 321 320 321 320 320 320 320 320 322 321 321 322 321 321 321 320 320 321 321 321
333 332 339 340 337 339 338 335 334 334 336 340 340 338 341 342 340 341 341 339 337 335 338 343 343 344 346 345 345 349 349 348 350 343 331 325 325 325 325 327 327 328 330 329 327 327 327 327 326 326 325 325 326 326 326 325 325 325 327 328 327 326 324 324 326 327 323 320 320 320 320 321 320 320 321 322 322 321 321 321 321 321 320 320 320 320 321
333 335 341 339 335 336 335 334 336 336 338 344 344 340 342 342 338 338 339 337 336 336 339 343 343 346 349 348 348 353 352 352 354 343 326 321 323 323 323 324 325 328 329 327 326 326 326 326 325 324 324 326 325 326 326 327 327 328 328 328 325 324 324 326 328 326 322 320 320 321 321 321 321 320 321 322 322 322 321 321 320 320 319 320 319 319 320
337 338 338 334 334 337 336 332 333 333 334 339 337 331 332 336 336 337 337 337 337 337 340 346 345 343 346 350 349 348 349 352 348 334 322 320 322 322 322 323 324 327 327 326 325 325 325 325 324 324 324 325 326 326 327 327 328 328 328 326 324 323 324 327 328 325 321 321 321 320 321 321 320 320 322 322 322 322 321 320 319 319 319 319 319 319 320
336 341 343 339 335 339 343 337 331 329 330 333 334 332 332 335 337 339 340 339 338 337 336 341 346 347 346 346 348 349 351 349 336 323 320 321 322 321 322 323 323 325 326 326 325 325 324 324 324 324 325 325 326 326 327 328 329 328 327 326 324 322 323 325 326 324 321 321 321 321 321 321 321 321 322 322 322 322 321 320 319 318 318 319 319 320 320
329 331 336 339 338 341 345 339 333 332 329 330 334 336 335 335 337 338 338 338 339 339 333 327 334 348 350 341 341 350 348 335 325 322 323 324 323 323 324 324 323 324 325 325 325 325 324 325 325 325 325 325 325 325 326 326 327 327 326 326 324 323 323 323 324 323 321 321 321 321 321 321 320 321 322 323 322 321 320 319 319 318 318 318 319 320 320
325 323 327 332 334 337 341 338 337 337 332 329 330 332 333 334 334 334 338 340 338 342 340 327 323 334 341 332 332 344 342 327 321 324 325 325 325 325 326 325 325 326 325 325 325 325 325 326 326 325 325 325 324 324 324 324 324 324 324 325 325 325 325 324 324 323 321 321 322 321 321 321 321 322 323 323 322 321 320 319 319 318 318 319 319 320 320
322 324 328 330 332 338 340 335 334 337 336 333 332 332 334 335 331 331 339 342 335 334 340 336 325 322 325 322 322 332 334 326 322 324 325 326 327 326 326 326 326 325 325 325 325 325 325 325 325 324 324 324 323 323 323 323 324 323 324 325 326 326 326 326 325 324 323 322 322 321 322 321 322 322 323 323 322 321 320 319 318 318 318 319 319 319 319
324 329 330 329 330 333 333 329 327 332 334 332 332 334 334 331 329 328 330 331 327 323 327 332 326 320 319 320 320 322 322 322 324 325 324 324 325 324 323 323 322 322 323 323 323 322 322 322 322 323 324 323 323 323 323 324 323 324 323 324 325 326 325 325 325 324 325 324 322 322 323 323 322 323 322 322 322 321 319 318 318 318 318 318 318 318 318
325 331 331 328 329 331 330 329 330 333 332 330 333 335 330 325 326 326 323 323 323 320 319 321 322 320 320 321 322 322 322 324 327 326 323 321 321 320 320 319 319 319 321 321 320 320 320 322 323 323 323 323 323 323 323 323 323 323 323 324 324 324 325 325 324 324 325 325 324 323 323 322 322 322 321 321 320 319 318 317 316 315 315 316 317 316 316
320 326 328 325 326 329 330 330 333 334 331 329 330 330 326 325 328 330 330 330 328 324 322 321 320 320 321 322 323 324 325 325 325 323 321 321 320 320 319 319 318 318 319 319 319 320 321 323 323 323 323 323 322 322 322 322 322 322 322 323 324 324 325 325 324 324 324 324 323 322 322 322 322 321 320 319 318 317 317 316 314 313 312 313 315 315 315
318 319 323 323 324 327 329 328 331 334 331 326 325 324 326 330 333 335 336 336 332 331 330 327 322 321 322 322 324 324 324 325 323 322 322 322 321 320 320 319 318 318 318 319 320 321 322 323 323 323 322 322 321 322 321 321 321 322 322 322 323 324 324 324 322 322 322 322 322 322 321 321 320 320 319 318 317 317 316 315 313 312 311 311 312 313 313
319 320 323 324 325 325 327 327 331 334 332 328 327 327 328 332 335 336 335 334 334 335 332 324 322 324 323 323 323 323 323 323 323 322 322 322 321 321 320 319 319 319 320 321 322 322 322 323 323 322 322 321 321 321 321 321 322 322 322 322 323 323 323 323 322 322 322 322 322 321 320 319 319 318 318 317 317 316 315 314 312 310 309 308 308 308 309
320 322 325 329 330 327 327 328 331 332 328 326 328 329 329 331 335 336 334 333 336 335 329 322 322 323 323 323 324 324 323 323 323 322 322 322 321 321 320 320 320 321 321 322 322 322 322 322 321 321 321 320 320 320 320 321 322 322 321 322 322 322 322 322 322 322 322 321 321 320 319 319 318 317 317 316 316 315 314 313 311 309 307 306 306 305 306
319 321 325 330 331 327 326 328 329 328 327 327 329 330 330 330 332 333 332 331 331 328 325 325 324 322 321 322 323 323 322 322 322 322 322 322 322 322 321 321 322 322 321 320 320 320 320 320 319 319 318 318 319 319 319 320 321 321 321 322 322 322 322 322 321 321 321 320 319 318 318 318 317 317 316 315 314 314 313 312 310 308 306 305 304 303 304
319 320 323 328 330 328 328 328 327 326 326 327 327 328 327 326 328 328 327 326 324 321 321 323 323 321 322 323 323 322 321 321 321 321 321 321 322 321 321 321 320 320 319 319 319 319 319 319 318 317 316 316 317 318 319 320 320 320 321 322 322 321 321 320 320 320 319 317 317 317 316 316 316 315 315 314 314 313 312 311 310 308 305 304 303 302 303
319 319 320 324 327 327 329 329 326 324 325 325 325 325 325 324 324 323 320 320 322 323 321 320 320 322 323 323 322 320 321 322 323 321 319 319 319 319 318 318 318 317 317 317 317 317 317 318 317 316 315 315 316 316 318 320 320 321 322 321 320 319 318 317 317 316 315 314 314 314 314 314 313 312 312 312 312 311 311 310 309 307 305 303 302 302 302
317 318 319 321 323 324 325 326 325 324 324 324 323 323 322 320 319 320 319 319 321 321 320 319 320 322 322 321 320 319 319 321 321 320 319 319 317 316 316 316 315 315 314 314 314 315 315 316 317 317 317 317 318 319 319 320 321 321 321 320 318 317 315 314 313 312 311 311 311 311 311 311 311 310 310 309 309 309 309 309 308 306 305 303 302 301 301
317 318 320 321 323 324 325 324 323 322 322 322 322 322 321 318 318 320 320 318 318 319 319 318 318 319 318 318 318 317 318 319 320 319 319 317 316 315 315 314 313 313 313 312 313 313 314 316 318 319 318 318 318 319 319 320 320 319 319 317 316 315 313 312 310 309 308 309 309 309 310 309 309 308 308 307 307 307 307 306 306 305 304 303 302 301 300
315 317 321 322 323 324 325 323 319 317 318 319 319 320 321 319 318 319 319 317 316 318 318 317 317 317 317 318 318 318 319 320 320 319 317 315 314 314 313 312 312 312 312 312 313 314 315 317 318 318 317 316 316 317 317 318 317 316 315 314 314 313 312 310 308 307 306 306 306 306 306 306 306 306 305 305 305 305 304 304 303 303 302 301 300 299 298
315 316 319 321 320 321 321 319 316 316 318 320 320 319 319 319 318 317 316 316 316 317 317 317 317 318 318 319 320 320 320 320 318 316 314 313 313 313 311 311 312 312 312 313 314 315 316 316 316 315 315 314 313 314 314 315 315 314 313 311 310 309 308 306 305 304 304 303 303 303 303 303 303 303 303 303 303 303 302 302 301 300 299 299 298 297 297
320 319 318 318 318 317 317 317 316 316 319 321 321 319 318 318 317 316 316 316 316 316 316 317 317 317 317 318 319 319 318 317 316 314 313 312 312 311 310 310 312 313 313 314 314 314 314 314 314 313 312 311 311 311 311 312 312 312 309 307 306 305 305 304 303 302 302 302 302 302 301 301 302 302 302 302 302 301 301 300 299 298 298 297 296 295 294
322 321 319 318 319 318 318 318 317 317 317 318 318 318 318 317 316 316 315 315 316 316 317 317 317 315 316 317 317 317 316 316 314 313 311 309 309 309 309 311 312 313 313 313 313 313 313 313 312 311 310 309 310 309 309 308 308 307 306 305 304 304 303 303 302 301 301 301 301 300 300 300 300 300 299 300 299 299 299 299 298 297 296 295 294 294 293
322 320 319 319 318 317 317 317 316 316 317 317 317 317 317 316 316 316 316 315 316 316 316 316 316 315 315 315 315 314 314 312 312 311 309 309 309 310 310 311 312 313 313 312 312 312 312 311 311 310 309 308 308 307 307 306 306 305 304 304 303 302 302 302 301 301 300 300 299 299 298 298 298 298 297 298 298 298 298 298 297 296 294 294 294 293 292
322 321 322 322 319 317 316 316 316 316 316 316 316 316 316 316 316 316 316 316 316 315 315 316 316 316 315 314 314 313 311 311 310 309 309 309 309 309 310 311 311 312 312 311 311 310 310 310 309 308 308 307 306 306 306 305 305 304 303 303 302 301 301 301 300 300 299 299 298 298 297 297 297 296 296 297 297 297 297 297 296 295 294 293 293 293 292
321 321 322 323 321 318 318 318 317 317 317 316 316 316 316 316 316 316 316 315 316 316 317 318 318 317 316 315 313 312 311 310 309 309 308 308 308 309 309 310 311 310 310 309 308 308 308 308 307 307 307 306 305 305 305 304 304 303 303 302 301 301 300 300 300 299 299 298 298 298 297 296 296 296 296 296 296 296 296 296 296 294 293 293 292 292 292
320 320 320 320 320 320 319 318 318 318 317 316 316 316 316 316 317 317 316 315 316 317 318 318 317 316 315 314 313 312 311 309 308 308 308 308 308 309 309 310 310 309 308 307 307 307 307 306 306 306 305 305 305 304 304 303 303 302 302 301 301 301 300 300 299 299 298 298 298 298 297 296 295 295 295 295 295 295 295 295 294 294 293 292 292 292 291
319 319 319 320 320 319 319 318 319 319 318 317 316 316 316 316 317 317 316 316 317 318 317 316 316 315 314 314 313 312 310 309 308 308 308 308 308 309 309 309 309 308 307 306 306 305 305 305 305 304 304 304 303 303 302 302 302 301 301 300 300 300 300 300 299 299 298 297 297 297 296 296 295 294 295 294 294 294 294 294 293 293 292 292 291 291 290
318 319 319 320 319 318 318 318 318 318 317 317 316 316 316 316 317 317 317 317 317 317 317 316 315 315 314 313 312 311 309 308 308 308 308 309 309 308 307 307 307 307 306 305 305 304 304 304 304 303 303 302 302 301 301 300 300 300 299 299 298 298 298 299 299 298 298 297 296 296 295 295 294 294 294 293 293 293 293 292 292 292 291 291 291 291 291
318 317 317 318 318 317 318 318 318 317 317 318 318 316 315 316 317 317 317 317 317 317 317 317 316 315 314 314 313 311 310 309 309 309 309 309 308 307 306 306 307 306 305 304 303 303 303 303 303 302 301 301 300 300 299 299 298 298 298 297 297 297 297 297 298 298 297 296 295 295 295 294 294 294 293 293 293 292 292 292 291 291 291 291 291 291 291
316 316 316 317 318 317 317 318 317 315 315 316 317 315 315 316 317 317 317 317 317 316 316 316 315 315 314 314 313 313 312 311 310 310 309 308 307 307 306 306 306 305 303 303 303 303 302 302 302 301 301 300 300 299 298 298 297 297 297 296 296 297 296 297 296 296 296 295 295 294 294 294 293 293 293 292 292 292 291 291 291 290 290 290 290 290 290
316 316 316 317 317 317 317 317 316 315 315 315 315 314 315 316 316 315 315 315 315 315 315 315 315 314 313 313 312 312 312 311 311 311 309 308 307 307 306 306 305 305 303 303 303 303 302 301 301 301 300 300 299 299 298 298 297 296 296 296 296 296 295 295 295 295 295 294 294 294 293 293 293 292 292 292 291 291 291 291 290 290 290 290 290 289 289
315 315 315 316 317 317 317 317 316 316 316 316 315 315 316 316 314 313 314 314 314 314 314 314 314 314 313 312 311 311 311 310 310 310 309 308 307 307 306 306 306 305 304 304 303 303 302 301 301 300 299 299 298 298 298 297 296 296 295 295 295 295 295 295 294 294 294 294 294 293 293 293 292 292 292 291 291 291 290 290 290 290 290 290 290 290 290
315 315 315 315 316 317 317 317 317 317 318 318 317 316 316 315 314 314 314 313 312 311 311 310 311 311 311 310 310 310 310 310 310 310 309 308 308 307 306 306 306 305 304 304 303 303 302 301 300 299 299 298 298 297 297 297 297 296 295 295 295 294 294 294 294 294 294 294 293 293 293 292 292 292 291 291 291 290 290 290 290 290 290 290 290 290 290
314 313 314 314 315 315 316 316 316 317 318 318 318 316 315 315 314 314 314 313 311 310 309 308 308 308 309 309 309 309 308 309 310 310 309 308 307 306 306 306 305 303 302 302 302 301 300 300 299 298 298 297 297 297 297 296 296 296 295 295 294 294 294 294 294 294 294 293 293 293 292 292 292 291 291 291 291 291 291 290 290 290 290 290 290 290 290
Wind_Speed
3 4 1 1 2 2 3 5 5 4 4 6 5 5 6 7 6 8 7 6 7 8 8 9 9 9 10 11 9 6 5 6 8 9 10 10 9 8 8 7 7 7 7 7 11 16 18 18 20 20 17 14 13 14 14 12 11 11 11 11 11 10 9 10 10 10 11 12 12 13 13 13 13 15 16 16 16 17 18 18 16 15 14 16 17 18 18
2 1 3 1 3 3 1 2 4 5 6 7 7 5 5 7 7 8 4 6 8 9 9 10 8 7 8 6 5 6 7 9 10 11 11 11 10 10 9 8 8 7 8 9 12 16 16 17 20 19 16 14 15 16 15 13 12 10 10 11 11 10 10 10 10 11 12 12 13 13 14 13 14 15 16 16 16 17 18 18 17 17 17 18 18 18 17
2 3 1 2 3 4 2 3 4 2 2 3 4 4 3 4 5 7 3 4 8 8 8 8 5 3 5 5 6 8 9 10 11 11 11 11 11 10 9 8 7 7 7 8 12 14 16 19 20 18 15 15 16 17 16 15 13 11 10 11 11 10 10 10 11 12 12 12 13 14 13 14 15 16 17 15 15 16 17 18 18 18 19 19 17 16 16
3 3 1 3 5 4 2 5 7 5 2 3 3 3 4 5 4 4 3 3 7 7 4 3 2 3 6 7 8 7 7 9 12 12 12 11 11 10 9 8 8 8 8 9 12 15 18 21 21 17 15 16 17 18 18 16 14 12 12 12 11 10 11 11 11 11 11 12 13 13 14 15 16 16 15 14 14 16 16 17 18 18 19 19 17 16 15
4 4 2 4 5 4 3 6 7 6 4 4 3 2 4 6 5 4 4 6 7 5 2 3 3 5 7 9 9 8 8 9 10 11 12 11 11 11 9 9 9 9 10 13 17 20 22 23 20 17 16 17 18 18 17 16 15 14 13 12 11 11 11 11 12 12 12 13 13 14 14 15 15 15 13 12 13 15 16 16 18 19 20 19 18 15 14
3 5 4 4 1 2 5 6 6 6 4 6 5 5 7 7 5 4 5 6 5 4 4 6 6 6 5 5 7 8 8 9 10 10 11 11 11 9 8 9 9 10 13 17 20 22 24 23 19 16 17 18 18 17 16 16 15 15 14 13 13 13 12 13 13 13 13 13 13 13 14 16 16 14 13 12 13 15 16 16 18 19 19 19 17 15 14
2 1 5 2 5 7 7 6 3 2 2 6 7 7 8 8 7 6 6 9 9 6 6 5 4 5 4 3 2 5 6 9 10 10 10 9 8 8 8 9 9 10 14 18 19 23 25 23 19 18 20 20 19 18 17 17 16 15 15 15 15 15 14 14 14 14 15 14 13 13 15 16 16 14 13 13 14 15 16 16 17 17 17 17 17 16 15
2 2 3 4 6 6 7 7 4 2 1 2 3 5 8 8 7 7 8 10 8 4 4 4 2 3 1 3 2 3 4 6 8 9 10 9 9 9 11 12 13 16 21 23 24 26 25 22 20 21 21 20 20 19 19 18 18 17 16 16 16 16 16 16 16 16 15 14 13 14 15 16 15 13 13 14 14 14 16 15 14 14 14 16 17 17 17
3 3 3 3 5 6 6 5 3 4 3 5 5 3 7 7 6 8 7 7 4 3 2 2 2 3 3 5 3 2 4 6 7 8 8 9 11 12 15 17 19 22 26 27 27 26 22 21 22 23 22 21 21 21 21 20 19 18 18 18 17 16 15 15 15 15 14 13 14 14 14 15 14 13 13 14 13 14 15 15 13 12 13 14 15 17 18
3 4 0 2 3 4 5 8 8 4 3 7 8 3 5 7 6 8 7 6 5 6 4 3 3 4 5 2 5 4 5 6 6 5 4 7 11 13 14 16 17 19 22 25 24 22 20 21 24 24 23 23 23 23 22 22 20 20 19 20 18 16 15 14 13 13 13 14 14 14 13 13 13 13 13 13 12 13 15 14 12 12 13 14 15 16 18
2 4 2 3 4 5 7 10 10 5 4 7 7 4 5 7 6 7 7 6 6 7 6 6 5 5 3 4 6 4 6 7 7 7 6 6 10 13 14 16 17 19 21 22 21 20 20 23 25 24 24 24 23 23 23 22 20 20 22 22 19 17 15 13 12 11 12 13 13 12 11 12 12 13 12 11 11 13 14 14 13 14 14 14 15 17 18
3 4 3 3 3 5 7 9 8 4 4 6 6 1 7 7 5 6 8 7 7 8 7 6 5 5 5 5 6 4 7 7 6 8 8 8 10 13 16 18 19 19 20 20 21 21 24 27 26 24 24 24 24 24 23 21 20 21 22 21 18 16 15 13 12 12 12 12 12 11 11 12 12 12 10 10 11 13 13 14 14 15 14 14 16 17 18
4 4 4 3 3 6 8 8 6 4 4 4 2 6 7 5 6 6 8 8 8 8 9 6 5 5 5 4 3 2 6 6 6 8 10 12 13 15 17 19 20 20 21 22 24 26 29 28 25 23 23 23 23 23 22 20 21 21 20 18 16 15 14 13 13 12 11 11 11 11 11 11 12 10 8 9 11 12 12 14 14 14 14 13 15 17 17
3 3 3 3 4 6 7 5 3 4 4 3 7 7 4 5 7 7 6 7 8 8 9 7 5 5 4 3 2 2 5 6 6 6 8 11 12 15 17 18 20 22 22 22 24 28 28 26 23 22 21 21 22 22 20 20 21 19 17 15 14 13 13 13 13 13 12 11 11 11 10 10 9 8 8 9 10 10 11 13 14 15 14 13 13 15 16
2 2 2 1 4 6 4 5 3 2 4 6 6 3 1 3 7 7 6 7 8 8 7 6 4 3 3 3 1 2 4 5 5 7 9 10 12 15 17 19 21 22 21 22 25 27 25 22 21 20 19 20 20 20 20 21 19 16 15 14 13 12 13 13 13 13 12 10 10 10 9 8 7 8 9 10 9 9 10 12 14 15 14 14 13 14 15
3 3 3 4 5 6 4 3 4 5 6 5 5 6 3 2 4 6 6 6 8 9 9 8 5 3 3 3 2 3 4 4 4 6 8 10 13 16 19 21 22 21 21 22 23 22 19 18 20 20 19 19 19 19 20 20 16 15 15 13 11 12 14 14 13 12 11 9 9 9 7 6 7 8 9 9 8 8 10 12 13 14 15 15 15 15 15
3 5 6 6 5 5 5 4 5 6 5 3 4 5 5 4 5 5 6 7 8 7 7 7 5 4 4 4 3 3 3 4 5 5 7 10 13 14 17 19 19 18 20 21 18 16 16 18 19 19 19 18 18 19 20 18 15 14 14 12 12 14 15 15 14 13 11 9 8 7 6 5 7 8 8 7 7 8 10 11 12 14 15 15 15 16 16
3 3 4 4 5 5 6 5 4 5 4 2 1 3 4 3 3 4 5 7 8 7 7 7 5 4 4 3 3 3 3 3 4 5 7 10 13 15 16 18 17 16 17 16 15 15 16 17 17 17 17 18 19 20 19 16 14 14 14 13 14 15 16 18 16 12 11 9 7 6 6 6 6 7 8 7 7 8 9 9 11 13 14 15 16 17 17
3 3 4 5 5 6 6 6 4 2 1 2 1 3 4 4 4 4 4 6 8 7 6 7 6 4 4 4 3 4 3 4 5 5 6 10 13 13 14 15 14 12 13 14 14 15 15 16 16 15 16 17 18 17 15 14 15 15 15 15 15 15 17 19 15 11 12 9 7 7 7 7 6 7 7 6 7 8 8 9 10 12 14 15 17 18 18
1 5 7 7 6 7 6 4 3 1 1 3 3 3 4 5 5 4 4 6 7 6 5 6 7 5 4 5 4 4 4 4 5 4 6 9 9 8 9 9 8 9 12 13 13 13 15 16 14 13 14 14 12 11 11 13 14 14 14 14 14 15 17 17 12 12 11 9 7 7 8 8 7 6 5 4 5 6 6 8 10 12 13 15 15 16 15
2 5 6 6 6 7 6 3 2 3 2 3 5 4 5 7 7 6 5 4 4 6 6 6 7 6 4 5 4 4 4 4 4 5 6 7 7 7 8 7 8 10 12 12 12 14 16 14 11 10 10 7 6 7 8 9 9 10 11 12 13 14 15 13 10 12 11 9 8 8 9 9 7 6 4 3 4 3 3 6 8 10 12 15 16 16 13
4 4 4 2 0 3 5 3 3 5 4 5 7 5 5 7 7 7 7 6 4 4 5 5 7 7 5 5 5 4 4 4 4 5 5 5 6 5 6 7 8 10 10 11 13 14 13 10 8 7 5 4 5 6 6 6 7 9 10 11 13 14 14 12 9 11 11 9 9 9 9 10 8 6 3 3 3 1 2 5 7 9 12 14 16 16 15
6 8 8 4 2 2 6 5 5 5 3 3 7 8 7 7 7 7 9 7 5 4 3 4 7 7 6 6 6 5 4 4 4 4 3 4 4 4 5 6 8 9 9 9 9 9 8 7 6 4 4 5 5 5 5 4 5 7 8 10 13 15 15 14 12 11 11 10 9 9 10 10 8 5 2 1 1 1 4 5 7 9 11 13 15 16 16
6 9 8 4 3 4 6 5 6 4 2 1 3 5 6 6 6 7 8 8 7 6 4 4 6 7 7 7 7 5 4 3 3 3 4 3 3 3 4 5 6 6 5 5 5 5 5 4 3 3 4 5 5 5 5 6 6 7 8 9 12 15 16 16 14 13 12 11 10 9 8 8 7 5 3 2 2 4 5 5 7 10 12 14 15 15 16
5 8 6 3 5 6 5 2 2 2 2 1 3 3 5 6 6 7 7 6 7 8 7 6 6 6 5 4 4 3 2 2 3 4 4 4 4 4 4 3 3 2 2 2 2 3 3 3 3 3 3 3 3 4 5 6 7 7 7 8 10 12 14 15 16 16 14 12 9 8 7 7 5 4 3 3 4 6 7 5 6 10 13 15 15 16 16
4 6 6 3 3 4 3 1 1 4 4 3 3 4 4 4 4 5 5 4 5 6 5 5 4 3 2 2 1 1 2 3 4 4 4 4 3 2 2 2 2 3 2 2 2 2 1 2 2 2 2 2 3 3 4 4 5 6 7 8 9 11 12 13 14 15 14 13 10 7 5 4 5 4 3 4 6 7 7 5 5 8 13 15 16 16 17
4 3 3 5 6 5 4 4 4 5 6 6 4 4 3 4 5 5 5 5 5 5 5 6 5 5 4 3 1 1 2 3 2 2 3 3 2 4 4 4 4 3 2 2 2 1 1 2 3 3 3 2 1 2 3 4 5 6 6 7 7 9 10 11 11 11 12 11 7 3 5 6 6 6 7 8 9 8 8 8 8 9 12 15 15 16 16
8 4 2 4 7 7 7 5 3 3 4 6 6 5 6 7 7 6 6 5 6 6 7 6 6 4 2 0 0 0 1 1 2 3 4 4 4 5 5 4 4 3 3 2 2 0 1 2 3 3 2 1 1 2 3 5 6 7 7 7 7 8 8 7 6 4 3 2 3 5 7 8 9 10 10 11 11 11 11 10 10 10 12 13 13 13 14
9 8 5 7 9 8 5 3 2 3 3 4 5 6 7 7 6 5 5 5 5 5 5 5 5 4 3 4 4 4 4 3 4 4 5 5 5 6 5 4 4 4 4 3 1 1 2 3 3 2 2 1 0 2 4 7 8 7 6 6 7 8 6 4 1 4 7 7 8 9 9 11 11 12 12 12 11 11 11 10 10 11 12 13 13 14 15
7 7 7 7 6 5 5 5 6 6 5 5 6 5 6 7 7 6 5 5 5 4 5 5 4 4 5 6 7 6 5 4 4 5 5 5 5 5 5 5 4 4 4 3 3 3 3 2 2 1 1 1 1 2 4 6 7 6 4 4 5 7 7 5 6 9 11 12 13 13 13 12 11 12 12 12 11 11 11 10 10 11 12 13 14 15 17
8 7 6 7 6 6 8 8 7 6 6 6 7 6 6 7 8 7 5 4 4 4 4 4 4 5 6 6 5 4 4 4 3 3 3 4 4 4 4 4 3 3 5 6 5 4 3 2 1 1 1 2 3 4 4 5 6 6 6 5 3 4 7 8 11 14 15 16 17 16 13 12 12 13 12 11 11 11 10 10 10 10 11 12 13 14 15
11 10 7 5 5 6 7 6 6 7 7 7 9 9 8 8 8 8 7 5 5 5 5 5 5 4 3 3 2 2 2 1 0 1 1 2 3 2 1 2 5 7 9 8 7 5 4 2 1 2 2 3 5 6 5 4 4 5 4 1 3 7 10 12 15 15 15 16 17 16 13 12 13 12 11 11 10 10 9 9 9 10 11 11 11 12 14
11 11 8 5 4 5 6 7 7 8 9 8 8 7 6 6 7 7 7 6 6 5 5 5 5 3 2 2 3 4 4 5 4 3 3 5 7 8 9 10 11 11 10 8 6 4 2 0 1 2 3 5 6 6 7 6 4 2 1 4 8 10 12 13 14 14 14 14 15 15 14 13 12 12 11 10 9 9 9 9 9 9 11 11 10 12 13
11 12 11 10 8 8 9 9 8 7 6 5 4 5 5 6 6 7 8 8 6 5 7 8 7 5 5 5 7 8 8 6 4 4 5 8 11 13 14 13 13 12 11 9 6 5 4 3 3 3 5 7 8 8 8 6 4 4 7 10 12 13 13 13 13 15 15 14 12 13 13 13 13 12 10 9 9 9 8 9 9 9 10 10 10 11 13
12 13 13 12 10 10 11 11 10 10 8 7 6 5 5 6 7 8 8 8 8 9 10 10 9 8 8 9 9 8 7 5 5 6 8 10 12 14 15 14 13 12 11 9 8 7 6 5 4 5 6 6 6 5 2 3 6 9 12 14 14 14 14 14 14 15 15 12 10 11 12 11 11 10 9 9 9 9 9 9 9 9 10 10 9 10 12
12 11 10 10 10 9 8 6 6 6 6 6 6 5 5 7 8 9 9 9 10 12 12 11 10 9 9 8 8 7 7 7 8 9 10 12 13 13 13 12 11 11 10 9 7 5 4 4 4 4 3 4 6 6 7 9 11 12 13 14 15 15 15 15 15 14 12 10 9 10 10 10 10 9 9 9 9 9 10 10 10 9 10 9 9 10 11
12 11 10 9 7 6 5 6 8 7 7 7 6 5 5 7 8 11 12 12 12 13 13 12 11 10 9 9 9 9 9 9 9 11 14 14 14 13 12 11 10 10 10 8 7 6 5 5 4 4 5 8 10 10 10 11 12 13 13 15 17 18 18 18 18 16 14 12 11 11 10 10 10 9 9 9 9 9 9 9 10 10 10 10 10 11 11
11 11 11 9 7 7 9 13 17 17 13 10 8 7 9 11 12 12 13 13 13 13 13 12 12 12 12 11 11 11 11 11 13 15 16 15 13 13 13 11 10 10 9 7 6 6 7 6 6 8 9 11 12 12 11 11 12 13 14 16 18 19 19 19 19 19 18 17 16 16 15 14 14 12 11 10 10 9 9 9 10 10 11 12 12 13 14
4 3 4 6 10 12 13 15 19 20 19 16 13 12 14 15 15 14 13 12 12 13 14 14 14 13 12 11 11 11 12 14 16 16 15 15 15 15 13 10 9 9 8 6 5 7 8 8 9 11 13 13 14 14 14 14 14 14 15 15 16 17 17 18 19 19 19 18 18 18 18 17 15 13 12 11 10 11 11 11 11 12 12 14 16 17 18
5 5 4 2 3 8 11 12 13 15 19 19 17 15 16 16 15 13 12 11 12 13 15 15 13 11 10 11 11 11 13 15 16 16 16 16 16 15 12 10 10 9 8 6 7 9 8 8 10 12 14 14 15 15 15 14 14 13 13 13 14 15 15 16 16 17 18 17 17 17 17 16 14 14 14 13 12 12 11 11 12 13 15 17 18 18 18
5 7 9 9 7 4 1 7 9 9 10 12 13 14 16 16 15 13 11 11 11 12 14 14 12 10 10 11 12 13 14 15 16 17 17 16 15 12 8 8 9 9 8 7 8 9 8 8 10 12 13 13 13 13 13 12 11 11 11 11 12 13 14 14 15 16 16 17 17 17 17 17 16 16 17 16 15 14 13 11 11 13 16 18 17 17 17
6 7 10 11 11 11 9 7 10 11 10 11 12 13 12 12 12 12 11 12 12 11 10 11 11 12 12 14 16 16 16 15 15 15 14 12 11 10 8 8 9 9 8 8 9 9 9 9 10 11 11 12 12 11 10 9 9 9 9 10 11 12 13 14 15 16 16 17 18 17 17 17 16 16 16 16 16 16 15 14 13 14 15 15 15 15 15
7 8 9 10 10 11 12 8 7 11 12 12 12 11 10 11 12 13 13 13 12 11 11 11 12 13 15 17 17 16 15 15 15 14 13 12 11 12 13 12 10 9 9 9 9 9 9 9 10 10 10 11 10 9 8 7 7 7 8 9 11 12 13 14 15 16 17 17 17 16 15 15 15 15 15 15 15 15 15 15 15 15 14 14 13 13 13
7 8 8 9 10 8 5 4 4 8 10 9 10 11 12 12 14 15 15 14 12 12 13 14 14 15 16 17 17 16 15 15 16 15 14 13 11 11 13 12 11 10 9 9 9 9 9 10 10 10 9 9 8 7 6 6 5 6 7 9 10 12 13 14 15 16 16 15 15 14 14 13 13 14 14 14 14 14 14 14 14 14 13 12 12 11 11
5 6 9 10 11 9 5 3 3 5 7 8 10 10 11 13 13 14 15 15 13 13 14 16 16 16 16 16 15 16 16 17 18 18 14 9 7 8 10 11 11 10 9 8 8 9 9 9 9 9 8 7 6 5 5 5 5 6 7 9 10 11 12 13 14 14 14 14 13 13 12 12 12 12 12 13 13 13 13 13 12 12 11 10 10 10 10
5 6 7 8 8 6 4 4 6 8 10 9 8 7 8 11 12 12 13 14 14 14 15 16 17 17 17 16 16 16 16 15 15 14 12 11 11 12 13 12 11 11 9 8 8 9 8 7 7 7 7 6 5 4 4 5 5 6 7 8 9 10 11 12 13 13 13 13 12 11 11 11 11 11 11 11 11 11 11 10 10 10 9 8 8 8 8
6 6 6 7 7 6 5 6 8 9 9 7 5 5 6 9 10 11 11 12 14 14 14 15 16 17 17 17 17 19 19 16 10 7 9 12 14 14 14 13 12 11 10 9 9 9 8 8 7 7 6 5 4 3 4 5 5 6 7 7 8 9 10 11 11 12 12 11 11 10 10 10 9 9 8 8 8 8 8 8 7 7 7 7 6 6 6
5 5 6 8 9 10 10 11 9 7 6 6 6 6 7 9 10 10 10 11 12 12 13 13 14 15 16 17 17 19 20 18 11 7 9 14 16 16 15 14 13 12 12 11 10 10 9 9 9 8 7 5 4 4 5 6 6 7 8 8 8 9 10 10 10 10 10 9 9 8 8 8 8 7 6 6 6 6 6 6 6 6 6 6 5 5 5
5 6 8 10 11 12 11 10 7 5 6 7 8 8 9 10 10 9 9 11 12 11 12 13 13 14 16 16 16 17 19 16 10 8 14 18 17 16 15 14 14 14 14 14 13 12 11 10 10 9 8 6 5 5 6 6 7 8 9 9 9 10 9 9 9 8 8 7 7 7 7 6 6 5 5 5 5 4 5 5 5 5 5 4 3 3 2
7 8 8 9 10 10 10 8 6 8 10 10 10 10 12 11 8 7 9 11 12 12 12 13 14 14 16 16 15 17 17 13 7 8 16 20 17 14 15 15 15 15 15 14 14 14 13 11 10 9 8 7 6 6 7 7 8 9 9 9 10 11 10 10 9 8 7 6 6 6 6 6 6 6 6 5 5 4 5 5 4 4 3 3 2 2 1
7 8 8 7 7 7 6 6 7 10 11 12 12 12 12 10 8 8 11 13 14 14 13 12 12 13 14 14 14 14 14 9 7 10 17 19 16 15 15 15 15 14 14 14 15 14 13 11 10 8 7 6 6 6 7 8 8 9 9 9 10 10 10 10 9 8 7 6 6 6 7 7 7 7 7 7 6 5 5 5 4 3 3 3 2 2 2
8 8 8 8 7 5 3 3 6 9 11 11 12 13 11 9 9 9 11 12 14 15 14 12 10 10 12 13 13 12 10 9 9 13 17 17 15 15 15 14 14 15 15 15 15 13 12 10 9 8 7 6 6 7 7 8 9 9 9 9 9 9 10 9 8 8 8 7 7 7 8 8 8 8 8 8 7 6 6 5 4 4 3 3 3 4 4
Wind_Direction
207 192 245 326 100 121 160 155 162 176 170 164 175 206 197 155 168 247 244 178 199 245 256 250 236 215 217 220 208 194 169 157 157 159 169 178 180 181 182 185 187 185 187 193 205 215 218 220 222 220 217 221 229 238 244 247 250 252 249 246 249 261 275 281 289 298 300 299 301 303 306 312 320 325 327 326 325 322 318 313 309 309 310 309 310 313 311
98 263 293 256 124 108 129 194 188 173 175 189 203 219 198 180 218 252 222 193 230 248 246 250 245 215 212 206 174 160 161 163 166 169 176 179 182 187 189 190 192 190 192 199 207 213 216 218 218 215 215 224 233 241 245 246 248 245 240 244 252 263 272 278 288 296 298 299 301 302 306 312 320 325 327 327 326 323 319 314 310 307 303 302 306 309 307
5 324 332 116 110 132 177 278 281 221 176 200 225 240 196 182 252 274 257 229 259 261 239 250 264 197 171 165 175 182 176 171 170 174 179 182 184 190 192 190 190 194 198 204 209 212 214 216 215 212 218 229 236 243 247 244 243 241 239 246 257 266 272 279 289 297 302 305 305 306 309 315 321 325 325 325 325 322 319 317 316 314 310 305 302 300 301
278 294 95 73 40 60 37 306 280 254 226 209 219 210 178 175 212 257 277 244 257 265 246 245 261 169 170 186 193 186 178 175 174 178 182 183 185 191 191 188 191 196 201 206 210 212 214 214 213 214 223 232 238 244 246 244 241 241 242 249 259 267 275 282 289 299 307 307 307 311 315 321 324 323 321 321 324 322 320 320 321 320 319 315 306 297 297
258 291 46 61 42 35 318 276 236 210 204 217 239 251 220 203 175 187 225 226 238 267 262 220 214 189 195 207 198 183 179 180 181 183 182 181 189 193 188 187 195 200 203 208 210 211 212 212 211 216 225 231 237 244 247 245 242 241 244 252 260 267 275 282 289 302 307 304 306 313 320 327 326 320 317 319 323 326 325 324 325 324 324 322 313 300 297
250 293 22 52 55 230 249 244 194 168 173 191 207 241 240 223 191 194 233 243 251 257 223 214 214 207 219 228 207 191 177 173 181 188 185 185 189 187 184 192 201 204 206 210 214 214 213 212 213 220 226 230 238 245 249 248 245 243 247 253 260 266 275 283 290 301 307 304 306 313 324 331 326 317 316 319 324 331 331 329 330 329 327 326 319 304 294
176 5 56 88 230 228 246 273 256 212 190 175 192 244 258 240 231 239 255 261 258 238 220 239 252 245 279 325 198 190 185 180 179 180 184 189 184 179 189 202 208 209 207 209 215 216 215 214 215 220 224 229 236 242 246 247 247 248 251 256 262 267 274 281 288 297 305 306 308 316 326 329 323 317 317 320 326 333 333 331 331 330 330 331 324 311 297
144 106 113 191 240 258 284 298 278 201 159 140 180 279 280 248 217 207 230 253 257 229 233 273 279 227 275 22 63 176 186 179 173 174 183 186 181 186 196 201 203 206 206 208 212 214 213 214 217 221 224 228 233 238 243 246 250 254 257 260 265 269 274 281 286 293 301 305 309 318 324 323 319 317 320 324 330 334 332 329 329 330 332 333 329 320 307
151 148 183 241 287 306 306 288 235 180 174 169 164 236 275 254 203 180 208 244 231 174 210 248 156 128 71 20 335 231 181 173 181 188 187 183 188 197 201 204 207 208 208 210 213 213 213 215 220 223 225 227 232 238 242 246 251 257 260 261 265 270 276 282 285 289 296 303 308 315 322 322 318 318 322 328 334 336 332 327 325 327 331 333 333 330 321
109 107 138 289 278 273 261 249 249 243 184 165 144 135 278 270 223 190 200 217 187 156 148 166 151 93 65 344 283 237 184 178 182 189 191 190 200 207 205 207 212 214 214 216 218 217 217 220 224 225 226 227 232 237 242 247 253 257 260 262 264 268 274 280 284 287 292 299 306 313 320 322 320 320 325 331 337 340 338 334 328 328 330 330 331 333 331
106 128 183 219 218 236 240 243 257 263 171 143 104 61 295 272 230 193 189 197 184 162 158 166 144 98 103 248 265 228 182 181 181 186 193 194 202 211 213 211 214 217 219 221 223 222 221 225 228 227 226 228 230 235 242 249 254 257 260 264 266 269 274 278 280 285 290 295 302 308 311 316 320 321 323 331 340 345 346 344 338 333 331 326 325 330 333
159 152 198 234 232 242 242 244 255 241 153 113 86 335 272 260 220 183 176 188 187 167 159 157 141 135 173 224 253 217 174 173 184 190 192 190 193 203 211 216 220 222 221 220 220 221 224 228 230 227 226 226 228 234 243 250 253 257 263 270 276 279 279 278 276 280 286 290 295 298 298 307 317 318 319 333 346 349 349 347 341 334 330 325 323 326 329
171 169 215 257 260 246 242 243 236 191 124 94 158 222 236 223 200 189 177 179 178 163 159 163 171 184 196 217 246 193 154 162 187 194 194 198 202 205 210 215 218 220 222 222 223 226 229 231 230 227 225 224 226 234 243 248 253 261 270 280 287 289 286 280 274 276 281 284 288 289 291 303 314 314 316 332 344 348 349 349 347 340 334 326 322 325 329
160 171 208 276 291 252 222 205 199 160 137 191 221 219 214 186 181 182 175 169 167 169 174 178 182 196 219 245 257 165 160 171 182 185 187 196 208 215 218 219 217 217 221 224 226 230 232 229 227 227 224 223 227 235 241 246 256 267 276 283 289 292 291 281 271 271 275 277 281 282 286 300 310 309 313 324 333 342 347 348 351 350 345 338 331 332 335
155 136 160 262 283 260 208 136 129 179 193 210 209 184 166 184 167 160 164 169 168 172 183 192 196 205 239 259 242 158 177 182 177 183 187 193 205 212 214 218 219 217 219 223 227 230 230 226 226 227 224 225 231 236 240 248 259 270 277 283 287 290 289 281 270 267 268 267 273 278 282 294 301 303 310 318 326 338 346 348 351 351 351 352 346 341 341
148 149 196 213 226 247 245 169 182 217 222 206 175 150 149 188 174 159 160 174 180 179 179 187 196 209 233 233 180 156 194 207 195 195 199 203 212 214 215 219 220 217 219 225 229 231 229 225 227 227 226 229 232 235 242 252 261 269 278 283 283 284 287 281 271 264 255 253 268 276 274 282 294 302 312 318 327 340 345 350 352 350 349 351 347 340 338
182 185 217 238 242 257 267 246 229 248 264 235 180 163 157 172 188 176 163 171 182 180 169 167 173 191 209 211 187 178 209 217 207 212 221 223 225 226 226 228 227 222 224 228 230 231 228 225 228 231 231 232 232 236 248 256 260 269 283 287 280 282 289 287 276 258 240 243 263 264 255 268 290 302 309 317 331 339 341 347 350 348 347 346 342 338 334
280 244 239 281 301 291 288 280 255 251 264 259 166 146 143 153 168 163 157 164 170 165 155 154 174 203 199 192 220 236 253 263 243 238 246 244 240 237 238 241 239 230 228 230 229 228 229 228 230 235 238 237 237 242 251 258 264 277 290 288 281 282 287 291 283 252 228 236 247 237 239 261 286 301 306 315 333 336 335 342 347 347 346 344 341 338 336
330 287 280 308 306 284 290 301 295 284 319 333 50 126 145 149 142 137 138 145 150 152 155 157 169 187 175 170 220 246 255 262 256 249 250 250 247 244 246 252 249 234 224 223 222 225 230 230 233 241 245 245 244 248 258 271 279 286 288 285 286 289 291 293 282 239 220 229 226 222 242 258 275 298 306 319 335 333 330 338 344 346 348 348 346 341 337
211 247 268 291 290 276 278 278 260 258 35 29 42 88 126 125 118 116 113 124 137 145 154 155 149 153 169 177 197 226 241 254 259 258 257 262 269 272 269 269 260 237 226 223 221 225 230 231 235 245 248 248 251 264 279 286 286 285 281 282 292 300 301 296 272 228 219 225 217 222 246 252 266 298 310 321 334 332 334 344 351 355 358 0 0 355 346
300 275 279 301 312 308 314 316 261 234 180 94 71 79 106 110 107 99 84 83 121 140 150 150 136 139 179 195 183 200 230 248 256 262 268 276 284 283 272 258 238 226 225 224 223 227 232 238 247 254 253 258 281 293 290 286 280 274 272 281 296 305 308 299 261 223 222 230 225 232 247 251 267 299 307 314 327 330 354 11 16 20 19 17 16 15 10
311 277 259 239 344 291 285 278 240 219 186 130 114 115 118 120 125 119 100 73 56 94 132 145 134 141 184 201 182 193 217 223 235 254 268 272 266 259 251 237 225 223 225 225 227 234 244 259 274 277 273 284 296 288 275 268 264 263 269 283 297 303 308 303 266 233 234 240 238 244 254 258 272 295 296 304 320 332 73 54 39 34 31 26 21 20 22
264 272 267 228 159 239 255 244 228 228 222 151 146 150 148 147 149 138 125 115 99 98 138 166 151 151 176 187 178 193 218 217 220 236 248 252 243 226 217 216 216 219 224 229 238 251 268 283 290 291 289 281 272 266 261 256 261 269 279 291 299 303 307 305 285 258 250 252 253 257 258 259 271 287 276 257 320 99 110 83 53 38 35 32 25 21 20
264 287 281 238 208 250 253 234 224 234 272 245 181 163 151 157 163 153 143 143 145 146 164 194 178 166 170 178 181 192 217 219 213 219 233 244 240 226 218 215 218 223 231 245 265 277 285 288 280 267 268 269 264 262 266 269 273 284 293 299 302 303 304 305 300 287 271 263 263 263 259 257 265 272 246 198 121 108 112 91 60 47 43 39 36 32 28
266 292 289 240 229 257 267 252 240 262 276 252 231 198 168 172 181 171 158 156 159 159 163 185 194 181 166 171 179 182 215 238 231 226 231 229 220 223 230 234 243 260 283 303 304 294 285 275 261 256 261 267 264 260 265 273 281 291 302 308 308 307 307 309 311 307 295 279 269 267 265 255 242 230 218 182 136 123 123 112 76 57 50 47 47 46 42
245 285 303 293 264 281 301 50 26 277 252 214 235 246 212 182 175 163 148 148 162 160 149 152 164 146 95 86 123 185 243 257 248 235 234 227 221 244 298 320 340 358 1 349 339 326 300 268 241 225 205 208 235 249 259 277 290 295 299 301 300 304 310 312 312 311 307 298 287 273 254 223 198 183 157 140 132 124 116 104 65 42 41 46 50 51 47
280 283 321 320 321 315 268 218 219 232 208 179 191 228 195 139 128 118 102 99 111 109 98 103 113 102 73 51 39 258 264 270 266 270 276 280 311 340 342 343 352 1 358 349 352 332 229 195 182 174 165 175 240 275 278 278 278 280 292 303 305 305 309 309 306 305 306 303 291 230 166 157 157 149 134 122 113 100 87 72 46 25 24 33 43 48 47
292 273 199 244 270 274 263 251 242 212 180 172 178 174 144 124 117 112 105 105 108 101 92 97 112 120 112 66 161 213 275 259 247 278 292 296 307 321 326 329 334 335 329 335 344 339 161 166 177 179 166 156 263 284 290 295 293 289 296 315 326 323 315 308 308 329 6 37 109 129 137 144 142 135 122 109 98 89 81 71 55 34 19 20 30 40 43
275 274 252 236 246 260 277 282 217 184 174 153 148 150 142 131 123 126 141 142 130 116 110 115 128 152 179 195 193 187 187 202 228 262 285 291 298 311 317 315 319 329 340 353 21 123 148 159 174 176 158 139 170 291 300 306 306 302 301 309 310 299 285 263 181 113 110 116 121 123 129 136 133 121 107 97 90 87 82 72 60 46 28 18 19 21 23
259 270 278 273 264 256 251 240 220 206 188 158 148 156 156 145 141 152 163 150 136 137 143 142 148 170 188 199 205 207 212 230 259 283 302 312 312 314 313 308 314 339 9 46 94 129 149 157 164 171 178 197 253 306 311 305 298 294 303 315 298 268 241 204 147 132 131 130 126 125 127 126 116 102 96 92 87 84 82 76 66 54 38 27 22 16 10
274 276 278 283 276 245 231 231 223 206 190 166 155 158 158 151 151 160 163 151 140 147 152 156 166 179 194 208 218 229 246 266 293 314 327 330 322 311 307 313 334 42 78 90 93 98 106 110 71 359 333 283 269 282 304 312 312 312 308 299 269 208 184 157 134 130 131 126 122 122 122 114 102 94 92 90 84 80 80 77 72 63 49 37 29 20 11
277 281 280 278 273 257 243 233 213 199 193 179 169 169 170 165 160 159 162 161 155 152 155 163 168 174 195 218 221 225 230 217 125 54 27 14 3 355 26 101 106 105 103 101 97 96 100 98 8 342 330 294 274 276 282 285 309 331 321 267 140 130 133 133 130 130 128 122 117 114 108 101 97 93 89 86 83 80 78 77 76 70 60 48 36 27 25
266 276 275 253 238 246 247 237 219 207 197 186 178 173 166 157 155 154 153 149 146 150 158 158 155 155 166 176 169 155 141 130 120 109 92 79 78 88 102 110 109 104 101 101 102 106 105 357 310 316 314 301 293 296 296 283 270 275 232 148 127 118 119 121 122 118 110 105 107 107 101 95 92 89 86 84 83 82 82 83 81 75 68 59 46 39 42
246 253 250 235 220 218 223 222 216 211 202 184 168 158 151 150 149 144 140 140 143 157 163 158 155 159 160 157 155 152 145 134 123 114 102 94 96 102 105 106 105 102 100 97 93 81 58 27 357 335 326 318 311 308 305 286 240 188 156 141 131 123 115 108 103 98 92 87 90 95 93 89 86 84 84 85 85 85 87 87 86 82 76 67 54 48 52
246 247 248 243 234 227 223 213 200 193 186 171 161 155 144 137 134 133 140 151 159 163 162 157 155 155 151 148 150 150 143 130 126 128 120 110 107 110 109 107 105 102 95 87 78 68 54 34 6 344 338 339 338 334 308 202 177 159 147 139 131 121 113 108 105 103 100 96 90 87 86 88 89 89 87 85 84 84 85 85 84 84 82 73 61 53 51
249 243 245 245 236 228 225 215 195 185 170 152 144 138 127 131 139 146 155 163 163 158 155 152 147 142 138 135 134 132 126 123 125 126 120 115 114 115 112 105 100 94 85 74 62 52 44 33 22 14 25 51 68 84 114 137 144 143 142 139 130 118 112 110 107 104 104 103 99 94 93 94 94 91 88 85 83 82 82 81 79 78 78 74 67 58 50
250 234 235 239 224 199 173 140 129 126 115 104 103 111 127 145 158 160 158 157 157 156 155 151 144 134 125 122 123 122 122 124 125 122 121 122 122 116 105 93 84 78 67 50 36 38 48 55 65 80 86 87 93 102 118 132 136 133 130 127 120 113 107 104 100 98 97 98 97 98 99 98 94 92 90 88 87 84 82 79 77 75 74 72 69 67 61
258 239 229 217 181 153 145 141 140 138 131 119 123 151 170 172 167 159 152 152 156 161 160 152 141 131 123 120 119 118 119 123 125 125 126 128 124 111 94 80 70 62 49 29 28 56 75 86 97 99 94 90 94 101 113 125 130 126 118 113 110 107 106 104 101 100 99 99 98 99 100 99 99 98 96 94 93 92 88 86 84 82 80 79 78 75 74
312 267 223 187 160 149 149 152 155 154 151 148 154 168 173 168 159 152 150 154 161 164 158 146 135 128 123 122 119 118 121 128 132 132 130 128 120 106 91 76 68 65 58 55 77 94 101 109 108 103 100 100 102 105 110 116 119 118 114 109 105 104 105 106 104 103 102 101 100 101 101 100 99 99 98 96 97 98 97 96 94 90 88 89 89 87 84
24 40 44 64 169 170 163 160 160 158 155 156 158 159 158 155 150 146 147 155 162 164 157 146 134 127 128 130 126 124 131 138 140 137 130 122 113 103 89 75 73 75 78 91 105 109 112 116 112 107 107 108 108 109 112 115 114 112 110 108 105 105 107 108 108 109 108 107 105 104 104 102 101 102 103 103 104 103 103 102 99 98 99 99 98 95 93
34 48 52 43 11 330 171 131 121 117 126 135 139 141 145 147 146 145 149 156 162 164 160 152 142 137 137 135 130 128 133 137 137 134 130 122 114 105 90 75 78 86 91 99 110 116 119 118 113 110 109 109 110 112 113 112 109 106 106 106 107 110 113 115 116 118 119 118 116 115 114 112 111 111 112 113 113 113 113 111 109 110 111 110 107 103 100
40 53 62 59 34 3 3 63 97 94 84 89 102 116 129 139 143 148 153 158 159 157 154 150 146 141 136 132 128 125 126 129 129 129 126 121 115 112 105 94 95 104 113 118 119 120 119 115 113 112 111 110 110 109 106 104 103 104 107 111 114 117 121 124 126 127 127 126 124 123 122 120 119 119 118 119 120 122 122 124 124 123 122 120 116 112 109
38 50 56 64 57 25 3 13 80 94 85 86 102 122 140 151 156 157 156 156 154 148 141 139 140 138 135 131 127 123 124 128 128 121 110 103 104 112 116 114 113 118 124 123 118 114 111 109 109 108 107 108 108 104 100 100 105 111 117 124 128 129 130 132 132 133 133 133 132 131 130 127 125 125 125 125 127 128 130 131 133 133 131 127 123 119 115
40 63 72 81 86 75 26 360 65 87 92 109 136 152 159 162 163 162 159 155 152 147 143 142 143 143 141 137 133 133 137 138 131 120 108 99 98 109 120 126 128 130 126 120 112 108 108 109 109 108 107 107 105 100 98 104 115 127 134 138 141 142 142 141 140 140 141 141 140 139 138 135 133 133 133 133 133 135 136 137 138 138 136 132 128 124 119
60 87 101 108 114 122 140 158 122 101 109 125 136 144 152 157 161 164 161 157 153 153 152 152 151 149 147 144 142 146 151 148 139 132 127 121 120 133 143 145 143 139 134 127 119 116 114 114 114 114 115 113 108 105 109 120 134 144 147 148 150 152 153 152 151 149 149 149 148 146 144 142 141 140 139 139 139 139 139 140 142 142 139 134 129 123 117
91 92 104 117 125 133 149 155 141 134 133 126 116 119 138 150 156 162 164 162 160 160 160 160 159 157 155 151 145 142 144 146 144 145 149 153 155 156 158 156 151 149 148 144 136 131 130 129 127 126 126 125 120 116 122 134 145 151 150 147 149 154 159 162 160 158 156 154 151 149 148 149 148 144 142 141 141 140 141 142 142 140 136 132 127 121 116
115 113 120 130 132 133 143 151 145 141 139 132 118 117 134 146 154 161 164 165 164 163 163 165 167 167 166 163 157 151 149 149 151 160 168 163 157 156 158 157 155 157 161 158 151 148 148 149 148 146 144 141 136 135 139 145 150 151 148 146 148 152 155 157 158 156 154 152 151 151 153 154 153 150 149 149 149 149 149 149 146 142 140 139 136 130 122
114 113 121 131 138 144 151 153 149 144 141 139 136 138 146 152 154 157 160 161 161 161 163 167 170 172 173 174 173 169 165 161 158 167 177 170 162 160 163 165 165 169 171 166 160 161 163 161 162 164 163 162 165 166 159 155 152 148 145 148 154 156 155 154 155 155 155 156 158 160 161 160 158 157 157 156 156 158 160 158 155 152 148 143 136 127 118
105 111 123 139 150 155 154 151 146 145 148 146 144 149 155 154 150 151 156 157 154 155 160 167 173 177 178 178 179 178 176 172 169 173 176 174 170 169 171 172 173 178 179 174 169 170 174 173 174 177 179 180 184 183 176 168 161 153 147 148 152 156 157 158 159 160 163 165 166 167 167 166 164 166 165 162 165 172 174 171 166 161 154 146 138 132 124
123 126 131 144 155 159 159 158 160 163 163 162 159 161 162 158 150 150 157 155 151 150 157 165 173 181 183 182 182 183 183 186 192 182 176 175 175 176 176 175 178 184 188 184 176 174 178 183 185 185 186 188 190 191 187 180 172 166 161 158 157 159 161 163 165 167 169 168 170 176 181 181 180 178 176 173 172 175 179 180 180 176 172 172 175 176 171
127 124 122 129 143 157 170 184 186 180 178 175 173 171 169 164 158 159 163 161 155 151 152 156 168 180 186 186 186 186 189 200 204 182 175 176 179 181 180 181 186 191 195 192 184 180 183 190 193 193 195 199 199 195 192 188 184 181 177 172 169 169 170 171 173 177 179 181 186 192 192 191 191 190 186 182 182 183 186 191 196 200 205 215 229 240 254
109 109 111 112 116 124 139 174 189 190 189 186 179 176 174 168 160 160 167 169 165 159 155 152 157 172 184 186 186 188 195 200 191 178 175 179 183 185 186 190 194 197 199 199 196 191 192 196 200 205 211 213 208 202 199 196 195 194 192 187 184 185 185 186 188 191 194 197 203 205 204 202 202 201 198 197 199 200 200 205 214 223 229 239 250 260 268